STARLINK-35833

Last updated on Fri Dec 19 2025 00:02:05 GMT+0000 (Coordinated Universal Time)

1 66542U 25265AC 25352.66667824 .00031526 00000+0 75937-3 0 9995 2 66542 43.0006 19.5431 0000807 275.5646 149.3369 15.40678704 5946
UTC large
Height (km)
Speed (km/s)
/
Latitude / Longitude
Inclination (degrees)
Orbital Period (minutes)
Azimuth
Elevation
Range (km)
Doppler Factor

Next 0 passes for location: London (51.5072 / 0.1276)

Sorry there are no passes over London.